Olympia, WA
on Tuesday, November 6, 2012

Tuesday
Previous Day Next Day
Daily Summary
 ActualAverageRecord
Temperature
Mean Temperature °F 46°F  
Max Temperature 56°F 53°F 65°F (1999)
Min Temperature 37°F 38°F 19°F (2003)
Degree Days
Heating Degree Days 18 20  
Month to date heating degree days 70 114  
Since 1 July heating degree days 848 908  
Cooling Degree Days 0 0  
Month to date cooling degree days 0 0  
Year to date cooling degree days 82 106  
Moisture
Dew Point 44°F   
Average Humidity 93    
Maximum Humidity 100    
Minimum Humidity 86    
Precipitation
Precipitation 0.01 in 0.25 in 4.31 in (2006)
Month to date precipitation 1.24 1.48  
Year to date precipitation 41.94 35.39  
Wind
Wind Speed 5 mph   
Max Wind Speed 12 mph   
Max Gust Speed 17 mph   
Visibility 4 miles   
Events Fog , Rain   

Key: T is trace of precipitation, MM is missing value
Source: NWS Daily Summary
Time(PST)TemperatureDew PointHumidity Pressure Visibility Wind DirectionWind SpeedGust SpeedPrecipitationEvents Conditions
12:54 AM 41.0°F 39.9°F 96% 30.15 in 7.0 miles Calm Calm - N/A   Clear
1:54 AM 39.9°F 39.0°F 97% 30.14 in 6.0 miles SE 3.5 mph - N/A   Clear
2:15 AM 39.2°F 39.2°F 100% 30.13 in 3.0 miles Calm Calm - N/A   Mostly Cloudy
2:17 AM 39.2°F 39.2°F 100% 30.13 in 1.8 miles Calm Calm - N/A   Mostly Cloudy
2:24 AM 39.2°F 39.2°F 100% 30.13 in 1.0 miles Calm Calm - N/A   Mist
2:42 AM 39.2°F 39.2°F 100% 30.12 in 0.2 miles Calm Calm - N/A Fog Fog
2:54 AM 39.0°F 39.0°F 100% 30.12 in 0.2 miles Calm Calm - N/A Fog Fog
3:01 AM 39.2°F 39.2°F 100% 30.11 in 0.2 miles Calm Calm - N/A Fog Fog
3:39 AM 39.2°F 39.2°F 100% 30.11 in 0.5 miles Calm Calm - N/A Fog Fog
3:46 AM 39.2°F 39.2°F 100% 30.10 in 0.2 miles Calm Calm - N/A Fog Fog
3:54 AM 39.9°F 39.0°F 97% 30.11 in 0.2 miles Calm Calm - N/A Fog Fog
4:08 AM 39.2°F 39.2°F 100% 30.10 in 0.5 miles Calm Calm - N/A Fog Fog
4:54 AM 39.0°F 39.0°F 100% 30.09 in 0.8 miles Calm Calm - N/A   Mist
5:16 AM 39.2°F 39.2°F 100% 30.08 in 1.0 miles Calm Calm - N/A   Mist
5:30 AM 39.2°F 39.2°F 100% 30.07 in 2.0 miles Calm Calm - N/A   Overcast
5:39 AM 39.2°F 39.2°F 100% 30.07 in 7.0 miles Calm Calm - N/A   Overcast
5:54 AM 39.0°F 39.0°F 100% 30.07 in 4.0 miles Calm Calm - N/A   Overcast
6:04 AM 39.2°F 39.2°F 100% 30.07 in 3.0 miles Calm Calm - N/A   Overcast
6:11 AM 39.2°F 39.2°F 100% 30.07 in 1.5 miles Calm Calm - N/A   Overcast
6:13 AM 39.2°F 39.2°F 100% 30.07 in 0.8 miles Calm Calm - N/A   Overcast
6:25 AM 41.0°F 41.0°F 100% 30.07 in 0.5 miles Calm Calm - N/A Fog Fog
6:54 AM 41.0°F 41.0°F 100% 30.06 in 0.2 miles Calm Calm - N/A Fog Fog
7:54 AM 43.0°F 43.0°F 100% 30.06 in 0.2 miles Calm Calm - N/A Fog Fog
8:08 AM 42.8°F 42.8°F 100% 30.06 in 0.5 miles Calm Calm - N/A Fog Fog
8:33 AM 44.6°F 42.8°F 93% 30.05 in 1.0 miles SSW 3.5 mph - N/A   Overcast
8:38 AM 44.6°F 42.8°F 93% 30.05 in 2.0 miles SSW 4.6 mph - N/A   Mostly Cloudy
8:54 AM 44.1°F 44.1°F 100% 30.06 in 2.0 miles WSW 3.5 mph - N/A   Mostly Cloudy
9:36 AM 44.6°F 44.6°F 100% 30.04 in 1.2 miles West 4.6 mph - N/A   Overcast
9:46 AM 46.4°F 44.6°F 93% 30.04 in 0.5 miles WSW 4.6 mph - N/A Fog Fog
9:54 AM 46.0°F 46.0°F 100% 30.04 in 0.5 miles Variable 4.6 mph - N/A Fog Fog
10:25 AM 46.4°F 46.4°F 100% 30.03 in 0.5 miles WSW 4.6 mph - N/A Fog Fog
10:54 AM 48.0°F 48.0°F 100% 30.02 in 1.0 miles SW 5.8 mph - N/A   Overcast
11:11 AM 50.0°F 50.0°F 100% 30.01 in 1.8 miles SW 5.8 mph - N/A   Overcast
11:18 AM 50.0°F 50.0°F 100% 30.01 in 2.5 miles SSW 8.1 mph - N/A   Overcast
11:46 AM 51.8°F 51.8°F 100% 29.99 in 7.0 miles SW 9.2 mph - N/A   Overcast
11:54 AM 52.0°F 51.1°F 97% 29.99 in 7.0 miles WSW 10.4 mph - N/A   Overcast
12:54 PM 53.1°F 51.1°F 93% 30.00 in 5.0 miles WSW 6.9 mph - N/A   Overcast
1:54 PM 55.9°F 53.1°F 90% 29.99 in 8.0 miles SSW 11.5 mph - N/A   Overcast
2:42 PM 55.4°F 51.8°F 88% 30.00 in 10.0 miles SSW 6.9 mph - N/A   Overcast
2:54 PM 55.9°F 51.1°F 84% 30.01 in 8.0 miles WSW 6.9 mph - 0.00 in Rain Light Rain
3:54 PM 55.9°F 52.0°F 87% 30.01 in 10.0 miles SSW 10.4 mph - 0.00 in Rain Light Rain
4:54 PM 55.0°F 51.1°F 86% 30.01 in 10.0 miles SSW 9.2 mph - 0.00 in Rain Light Rain
5:54 PM 54.0°F 51.1°F 90% 30.01 in 10.0 miles SSW 10.4 mph - 0.01 in   Overcast
6:54 PM 53.1°F 50.0°F 89% 30.02 in 10.0 miles SW 9.2 mph - N/A   Mostly Cloudy
7:54 PM 50.0°F 46.9°F 89% 30.04 in 10.0 miles West 3.5 mph - N/A   Clear
8:54 PM 48.9°F 46.0°F 90% 30.05 in 10.0 miles SW 5.8 mph - N/A   Partly Cloudy
9:54 PM 50.0°F 46.9°F 89% 30.07 in 10.0 miles SW 5.8 mph - 0.00 in   Mostly Cloudy
10:54 PM 48.0°F 46.0°F 93% 30.08 in 10.0 miles SW 3.5 mph - 0.00 in   Partly Cloudy
11:54 PM 46.0°F 45.0°F 96% 30.09 in 10.0 miles South 4.6 mph - N/A   Mostly Cloudy
Moon Phase
Nov. 06 Nov. 06 Nov. 13 Nov. 20 Nov. 28
Sunrise:07:02 AM (PST) Moon Rise:11:37 PM (PST)11/6
Sunset:04:47 PM (PST) Moon Set:12:53 PM (PST)11/6

Copyright © 2014 The Weather Underground, Inc.